Regional Weather Roundup
Issued by NWS Green Bay, WI

Home | Current Version | Previous Version | Text Only | Print | Product List | Glossary On
Versions: 1 2 3 4 5 6 7 8 9 10 11 12 13 14 15 16 17 18 19 20 21 22 23 24 25 26 27 28 29 30 31 32 33 34 35 36 37 38 39 40 41 42 43 44 45 46 47 48 49 50
000
ASUS43 KGRB 020911
RWRGRB

NORTH-CENTRAL AND NORTHEAST WISCONSIN REGIONAL WEATHER ROUNDUP
NATIONAL WEATHER SERVICE GREEN BAY WI
400 AM CDT WED SEP 02 2015

WIZ005-009-010>012-018-019-021000-
NORTH CENTRAL WISCONSIN

CITY           SKY/WX    TMP DP  RH WIND       PRES   REMARKS
IRONWOOD         N/A     64  64 100 CALM      29.93S VSB 1/2
MANITOWISH WTR MOCLDY    63  63 100 CALM      29.98F FOG
ARBOR VITAE    MOCLDY    67  66  95 CALM      29.98F
EAGLE RIVER    MOCLDY    64  64 100 CALM      29.99S FOG
LAND O LAKES   CLOUDY    61  61 100 CALM      30.00F FOG
RHINELANDER    MOCLDY    68  65  90 CALM      29.99F FOG
PHILLIPS       CLOUDY    68  68 100 CALM      29.96F FOG
ANTIGO         FOG       66  66 100 CALM      29.99S VSB 1/4
TOMAHAWK       FOG       67  66  97 CALM      29.98S VSB 1/4
MERRILL        FOG       64  64 100 CALM      29.98S VSB 1/4
$$

WIZ013-073-021000-
NORTHEAST WISCONSIN

CITY           SKY/WX    TMP DP  RH WIND       PRES   REMARKS
IRON MOUNTAIN  MOCLDY    65  64  97 CALM      29.96R FOG
MARINETTE      MOCLDY    70  66  88 CALM      29.93S VSB 1
OCONTO           N/A     68  68 100 CALM      29.94S
$$

WIZ017-030-035>037-045-021000-
CENTRAL WISCONSIN

CITY           SKY/WX    TMP DP  RH WIND       PRES   REMARKS
MEDFORD        PTCLDY    69  69 100 S5        29.97F FOG
WAUSAU         PTCLDY    71  70  96 CALM      29.96S FOG
MOSINEE        MOCLDY    68  68 100 SW3       29.99S FOG
MARSHFIELD     FOG       69  66  90 SW5       29.98S VSB 1/4
WISC RAPIDS    FOG       70  68  93 SW3       29.99S VSB 3/4
STEVENS POINT  PTCLDY    69  69  99 CALM      29.98S FOG
WAUPACA        FOG       70  69  98 CALM      29.96F VSB 1
SHAWANO        PTCLDY    72  70  94 CALM      29.96S FOG
CLINTONVILLE   FOG       66  64  94 CALM      29.95S VSB<1/4
WAUTOMA        FOG       68  68 100 CALM      29.98S VSB 1/4
$$

WIZ038-039-048-051-021000-
FOX VALLEY

CITY           SKY/WX    TMP DP  RH WIND       PRES   REMARKS
NWS GREEN BAY  PTCLDY    71  69  93 CALM      29.96S FOG
APPLETON       PTCLDY    70  70 100 CALM      29.96S FOG
OSHKOSH        PTCLDY    73  70  90 SW7       29.97S FOG
FOND DU LAC    PTCLDY    72  71  97 SW7       29.98S
$$

WIZ022-050-052-021000-
EAST CENTRAL WISCONSIN

CITY           SKY/WX    TMP DP  RH WIND       PRES   REMARKS
EPHRAIM        FAIR      73  71  94 W6        29.94S
STURGEON BAY   MOCLDY    73  70  88 W5        29.97S
MANITOWOC      PTCLDY    64  61  90 MISG      29.95F
SHEBOYGAN      PTCLDY    71  70  96 SW6       29.97S
$$

LMZ563-521-522-541>543-021000-
LAKESHORE

STATION/POSITION TIME  TEMP    WIND        PRES    VSBY  WAVE
                       AIR SEA DIR/SP/G                  HT/PER
                 (UTC) (F)     (DEG/KT/KT) (MB)    (MI)  (FT/S)
SHEBOYGAN LKSHOR 0900   71     210/  6/  6 1014.6F
KEWAUNEE LKSHORE 0800   54     160/  4/  4 1013.3F
ALGOMA MARINA    0814             CALM       N/A
NORTHPORT PIER   0840   65      CALM  /  1 1013.5F
N MID LAKE BUOY  0850   66 65  210/  8/ 10 1013.6R         2/ 4
S GREEN BAY BUOY 0800   70 67  220/  6/  8 1015.5
SISTER BAY LKSHO 0834   70        CALM       N/A
CHAMBERS ISLAND  0800   73     200/  4/  8 1013.9S
MENOMINEE LKSHOR 0800   71     220/  4/  5 1012.7F
$$


USA.gov is the U.S. government's official web portal to all federal, state and local government web resources and services.